星链-34724(STARLINK-34724)

导读

STARLINK-34724是美国太空探索技术公司(SpaceX)星链星座的组网卫星,于2025年11月11日发射入轨,属于星链低轨互联网星座的扩容卫星,延续了星链卫星批量发射、部署低轨的特征,旨在为全球用户提供高速低延迟的卫星互联网服务,补充完善星座全球覆盖能力,支撑星链系统的服务稳定性与覆盖密度提升。

基本信息
目录编号:
66442
目录名称:
STARLINK-34724
国际标识:
2025-259W
轨道中心:
EARTH
卫星名称:
星链-34724
卫星全名:
星链-34724(STARLINK-34724)
卫星状态:
在轨 (已飞行297 天)
发射日期:
2025-11-11 UTC
国别 :
美国 (US)
星等 :
--
轨道信息
数据来源 国际轨道数据
星历时间: 2026-09-03T23:42:54+0800
19小时前
查看轨道信息
半长轴: 6861.095km
偏心率: 0.000266
轨道倾角: 43.006°
近地点辐角 286.214°
升交点赤经 349.735°
平近点角 73.842°
近地点: 481.132km
远地点: 484.784km
周期: 94.265分钟
每日圈数: 15.276106
详细信息
固有亮度:
5
最大亮度:
2.5
卫星平台:
Starlink V1.0
覆盖范围:
全球
运营商:
太空探索技术公司
运营商所在国:
美国
制造商(研发单位):
太空探索技术公司
制造商所在国:
美国
使用方式:
暂无
卫星简介
Starlink 计划是 SpaceX 推出的全球卫星互联网项目,通过发射低轨道卫星,为全球尤其是偏远地区提供高速、低延迟的互联网服务。自 2019 年起,Starlink 已部署数千颗卫星,旨在缩小全球数字鸿沟,推动互联网普及。该项目还为军事、航空等行业提供通信支持,带来广泛经济效益。
2D轨道图
3D轨道图
轨道高度分析图
轨道倾角分析图
轨道综合分析图
查看轨道综合分析图
交会数据列表
事件ID 空间交会对象 最接近时刻(TCA) 交会距离 交会风险概率(CRP) 交会风险指数(CRI) 操作
CDM_260905-154706-396506-644221
2026-09-05T
15:47:28+0000
0.391 km
远距离
2.425596E-4 高风险 0.83
CDM_260906-022805-760706-644221
2026-09-06T
02:28:36+0000
0.958 km
远距离
2.399921E-5 中风险 0.63
CDM_260906-050706-396506-644221
2026-09-06T
05:07:45+0000
0.948 km
远距离
2.09218E-5 中风险 0.61
CDM_260906-011505-638406-644221
2026-09-06T
01:15:05+0000
1.007 km
极远距离
1.478341E-5 中风险 0.58
CDM_260906-064405-638406-644221
2026-09-06T
06:44:36+0000
1.012 km
极远距离
1.452273E-5 中风险 0.58
CDM_260906-070906-644206-660221
2026-09-06T
07:09:21+0000
1.149 km
极远距离
1.256912E-5 中风险 0.57
CDM_260905-141306-396506-644221
2026-09-05T
14:13:19+0000
1.412 km
极远距离
5.340094E-6 低风险 0.5
CDM_260905-060505-691906-644221
2026-09-05T
06:05:17+0000
1.757 km
极远距离
3.20393E-6 低风险 0.45
CDM_260906-130605-987506-644221
2026-09-06T
13:06:15+0000
1.358 km
极远距离
2.970149E-6 低风险 0.44
CDM_260906-033306-396506-644221
2026-09-06T
03:33:36+0000
1.710 km
极远距离
2.941363E-6 低风险 0.44